Regional Weather Roundup
Issued by NWS

Home | Current Version | Previous Version | Text Only | Print | Product List | Glossary Off
Versions: 1 2 3 4 5 6 7 8 9 10 11 12 13 14 15 16 17 18 19 20 21 22 23 24 25 26 27 28 29 30 31 32 33 34 35 36 37 38 39 40 41 42 43 44 45 46 47 48 49 50

000
ASUS43 KFSD 221210
RWRSD

WEATHER ROUNDUP FOR SOUTH DAKOTA
NATIONAL WEATHER SERVICE SIOUX FALLS SD
700 AM CDT WED MAR 22 2017

NOTE: "FAIR" INDICATES FEW OR NO CLOUDS BELOW 12,000 FEET WITH NO
SIGNIFICANT WEATHER AND/OR OBSTRUCTIONS TO VISIBILITY.


SDZ001>005-009-010-012>017-221300-
NORTHWEST AND NORTH CENTRAL SOUTH DAKOTA

CITY           SKY/WX    TMP DP  RH WIND       PRES   REMARKS
BUFFALO          N/A     29  27  92 SE22      29.87F WCI  15
MOBRIDGE       CLOUDY    28  19  69 SE18G26   30.18F WCI  15
$$

SDZ012>016-024>037-041>051-057-063-072>074-221300-
SOUTHWEST AND SOUTH CENTRAL SOUTH DAKOTA

CITY           SKY/WX    TMP DP  RH WIND       PRES   REMARKS
RAPID CTY ARPT CLOUDY    32  30  92 S16       29.96F WCI  21
PIERRE         CLOUDY    29  24  82 SE18      30.22F WCI  16
CUSTER         CLOUDY    28  25  88 W5        29.97F WCI  23
ELLSWORTH AFB  CLEAR     33  33 100 S30G38    29.94F WCI  19
PHILIP         CLOUDY    32  29  88 SE13      30.11F WCI  22
PINE RIDGE     CLEAR     38  33  82 S18G39    30.03S
SPEARFISH      FOG       27  27 100 CALM      29.87F VSB 1/2
WINNER         FRZ RAIN  33  28  81 SE22G30   30.24F WCI  21
$$

SDZ004>011-016>023-039-040-221300-
NORTHEAST SOUTH DAKOTA

CITY           SKY/WX    TMP DP  RH WIND       PRES   REMARKS
ABERDEEN       CLOUDY    27  16  63 SE13      30.35F WCI  16
WATERTOWN      CLOUDY    24  12  60 SE13G21   30.37F WCI  12
BROOKINGS      CLOUDY    25  14  63 SE17      30.38F WCI  12
SISSETON         N/A     23  16  74 SE15      30.42F WCI  10
$$

SDZ017-020-022-023-036>040-048>070-221300-
SOUTHEAST SOUTH DAKOTA

CITY           SKY/WX    TMP DP  RH WIND       PRES   REMARKS
SIOUX FALLS    CLOUDY    27  15  61 SE14      30.40F WCI  16
HURON          CLOUDY    29  17  61 SE14G24   30.35F WCI  18
CHAMBERLAIN    CLOUDY    30  27  86 SE17G24   30.29F WCI  18
MITCHELL       CLOUDY    30  18  60 SE21G28   30.36F WCI  17
YANKTON        CLOUDY    28  19  69 E9        30.39F WCI  20
$$

ABBREVIATIONS USED IN REMARKS
   TC - TEMPERATURE IN CELSIUS
  WCI - WIND CHILL INDEX
   HX - HEAT INDEX
  VSB - VISIBILITY





USA.gov is the U.S. government's official web portal to all federal, state and local government web resources and services.